Chevak, AK

8:10 AM AKDT on July 27, 2017 (GMT -0800)
Chevak

Weather History for PAVA - October, 2013

Change the Weather History Date:

Monday, October 21, 2013

  Actual Average (PAHP) Record (PAHP)
Temperature  
Mean Temperature 38 °F -  
Max Temperature 42 °F 30 °F 50 °F (2007)
Min Temperature 35 °F 23 °F 8 °F (1999)
Degree Days  
Heating Degree Days 26    
Moisture  
Dew Point 35 °F    
Average Humidity 91    
Maximum Humidity 100    
Minimum Humidity 79    
Precipitation  
Precipitation 0.00 in - - ()
Sea Level Pressure  
Sea Level Pressure 29.67 in    
Wind  
Wind Speed 18 mph (SSE)    
Max Wind Speed 29 mph    
Max Gust Speed 32 mph    
Visibility 10 miles    
Events Rain    
Averages and records for this station are not official NWS values.
T = Trace of Precipitation, MM = Missing Value Source: NWS Daily Summary

Daily Weather History Graph

Daily Weather History Graph

Search for Another Location

Airport or City:

Trip Planner

Search our weather history database for the weather conditions in past years. The results will help you decide how hot, cold, wet, or windy it might be!

Date:

Astronomy

Oct. 21, 2013 Rise Set
Actual Time 10:02 AM AKDT 7:29 PM AKDT
Civil Twilight 9:17 AM AKDT 8:15 PM AKDT
Nautical Twilight 8:26 AM AKDT 9:05 PM AKDT
Astronomical Twilight 7:35 AM AKDT 9:56 PM AKDT
Moon 8:44 PM AKDT (10/21) 1:36 PM AKDT (10/21)
Length of Visible Light 10h 57m
Length of Day
9h 26m
Waning Gibbous, 92% of the Moon is Illuminated
Oct 21
Waning Gibbous
Oct 26
Last Quarter
Nov 3
New
Nov 9
First Quarter
Nov 17
Full

Hourly Weather History & Observations

Time (AKDT) Temp. Windchill Dew Point Humidity Pressure Visibility Wind Dir Wind Speed Gust Speed Precip Events Conditions
12:21 AM 35.6 °F 24.8 °F 35.6 °F 100% 29.54 in 10.0 mi SE 19.6 mph - N/A   Scattered Clouds
12:57 AM 36.0 °F 26.0 °F 35.1 °F 97% 29.56 in 10.0 mi SE 17.3 mph - N/A   Mostly Cloudy
1:41 AM 35.6 °F 25.9 °F 35.6 °F 100% 29.55 in 10.0 mi SE 16.1 mph - N/A   Mostly Cloudy
1:57 AM 36.0 °F 25.3 °F 35.1 °F 97% 29.56 in 10.0 mi SE 19.6 mph - N/A   Overcast
2:57 AM 37.0 °F 26.7 °F 36.0 °F 96% 29.57 in 10.0 mi SE 19.6 mph - N/A   Overcast
3:14 AM 37.4 °F 26.9 °F 35.6 °F 93% 29.56 in 10.0 mi SSE 20.7 mph 26.5 mph 0.00 in Rain Light Rain
3:57 AM 37.0 °F 27.0 °F 36.0 °F 96% 29.58 in 10.0 mi SSE 18.4 mph 24.2 mph 0.00 in   Overcast
4:12 AM 37.4 °F 27.5 °F 35.6 °F 93% 29.57 in 10.0 mi SSE 18.4 mph - N/A   Overcast
4:17 AM 37.4 °F 27.8 °F 35.6 °F 93% 29.57 in 10.0 mi SSE 17.3 mph - N/A   Overcast
4:53 AM 37.4 °F 27.5 °F 35.6 °F 93% 29.57 in 10.0 mi SSE 18.4 mph - 0.00 in Rain Light Rain
4:57 AM 37.9 °F 28.5 °F 36.0 °F 93% 29.58 in 10.0 mi SSE 17.3 mph - 0.00 in   Overcast
5:23 AM 37.4 °F 28.5 °F 35.6 °F 93% 29.57 in 10.0 mi SSE 15.0 mph - 0.00 in   Overcast
5:31 AM 37.4 °F 28.9 °F 35.6 °F 93% 29.58 in 10.0 mi SSE 13.8 mph - 0.00 in   Overcast
5:34 AM 37.4 °F 28.5 °F 35.6 °F 93% 29.58 in 10.0 mi SSE 15.0 mph - 0.00 in   Overcast
5:43 AM 37.4 °F 27.8 °F 35.6 °F 93% 29.58 in 10.0 mi SSE 17.3 mph 23.0 mph 0.00 in   Overcast
5:46 AM 37.4 °F 28.5 °F 35.6 °F 93% 29.58 in 10.0 mi SSE 15.0 mph 23.0 mph 0.00 in   Overcast
5:54 AM 37.4 °F 27.8 °F 35.6 °F 93% 29.57 in 10.0 mi SSE 17.3 mph - 0.00 in   Overcast
5:57 AM 37.9 °F 28.2 °F 36.0 °F 93% 29.59 in 10.0 mi SE 18.4 mph - 0.00 in   Overcast
6:27 AM 37.4 °F 27.8 °F 35.6 °F 93% 29.58 in 10.0 mi SSE 17.3 mph - N/A   Overcast
6:34 AM 37.4 °F 28.2 °F 35.6 °F 93% 29.58 in 10.0 mi SSE 16.1 mph - N/A   Overcast
6:57 AM 37.9 °F 28.9 °F 36.0 °F 93% 29.59 in 10.0 mi SSE 16.1 mph - N/A   Overcast
7:35 AM 37.4 °F 27.2 °F 35.6 °F 93% 29.59 in 10.0 mi South 19.6 mph 24.2 mph N/A   Overcast
7:44 AM 37.4 °F 27.8 °F 35.6 °F 93% 29.59 in 10.0 mi SSE 17.3 mph - N/A   Mostly Cloudy
7:57 AM 37.9 °F 28.2 °F 35.1 °F 89% 29.60 in 10.0 mi SSE 18.4 mph - N/A   Overcast
8:49 AM 37.4 °F 28.2 °F 35.6 °F 93% 29.61 in 10.0 mi SSE 16.1 mph - N/A   Scattered Clouds
8:57 AM 37.0 °F 27.7 °F 35.1 °F 93% 29.62 in 10.0 mi SSE 16.1 mph - N/A   Scattered Clouds
9:57 AM 37.0 °F 27.7 °F 34.0 °F 89% 29.63 in 10.0 mi SSE 16.1 mph - N/A   Mostly Cloudy
10:57 AM 36.0 °F 27.5 °F 35.1 °F 97% 29.65 in 10.0 mi SE 12.7 mph - N/A   Partly Cloudy
11:29 AM 37.4 °F 28.5 °F 35.6 °F 93% 29.64 in 10.0 mi SSE 15.0 mph - N/A   Mostly Cloudy
11:57 AM 37.9 °F 29.2 °F 36.0 °F 93% 29.66 in 10.0 mi SSE 15.0 mph - N/A   Overcast
12:57 PM 39.9 °F 30.5 °F 36.0 °F 86% 29.68 in 10.0 mi South 19.6 mph - N/A   Mostly Cloudy
1:57 PM 41.0 °F 30.9 °F 36.0 °F 82% 29.70 in 10.0 mi South 24.2 mph 31.1 mph N/A   Overcast
2:57 PM 41.0 °F 30.0 °F 35.1 °F 79% 29.71 in 10.0 mi South 28.8 mph - N/A   Overcast
3:57 PM 42.1 °F 32.6 °F 36.0 °F 79% 29.71 in 10.0 mi South 23.0 mph 32.2 mph N/A   Overcast
4:40 PM 41.0 °F 32.2 °F 37.4 °F 87% 29.71 in 10.0 mi South 18.4 mph 31.1 mph 0.00 in   Mostly Cloudy
4:50 PM 41.0 °F 31.4 °F 35.6 °F 81% 29.71 in 10.0 mi South 21.9 mph 27.6 mph 0.00 in   Mostly Cloudy
4:57 PM 41.0 °F 31.4 °F 36.0 °F 82% 29.73 in 10.0 mi South 21.9 mph 31.1 mph 0.00 in   Mostly Cloudy
5:57 PM 41.0 °F 31.4 °F 35.1 °F 79% 29.74 in 10.0 mi South 21.9 mph 27.6 mph N/A   Mostly Cloudy
6:21 PM 39.2 °F 29.3 °F 35.6 °F 87% 29.74 in 10.0 mi South 20.7 mph 26.5 mph N/A   Scattered Clouds
6:57 PM 39.0 °F 29.6 °F 35.1 °F 86% 29.76 in 10.0 mi South 18.4 mph - N/A   Partly Cloudy
7:34 PM 37.4 °F 28.9 °F 35.6 °F 93% 29.76 in 10.0 mi South 13.8 mph - N/A   Mostly Cloudy
7:57 PM 39.0 °F 29.0 °F 35.1 °F 86% 29.78 in 10.0 mi South 20.7 mph 24.2 mph N/A   Mostly Cloudy
8:07 PM 37.4 °F 27.5 °F 33.8 °F 87% 29.77 in 10.0 mi South 18.4 mph - N/A   Scattered Clouds
8:10 PM 37.4 °F 27.8 °F 33.8 °F 87% 29.77 in 10.0 mi South 17.3 mph - N/A   Mostly Cloudy
8:57 PM 37.9 °F 29.2 °F 35.1 °F 89% 29.80 in 10.0 mi South 15.0 mph - N/A   Mostly Cloudy
9:30 PM 37.4 °F 28.5 °F 33.8 °F 87% 29.80 in 10.0 mi South 15.0 mph - N/A   Scattered Clouds
9:53 PM 37.4 °F 29.3 °F 33.8 °F 87% 29.81 in 10.0 mi South 12.7 mph - N/A   Mostly Cloudy
9:57 PM 37.0 °F 28.9 °F 34.0 °F 89% 29.82 in 10.0 mi South 12.7 mph - N/A   Mostly Cloudy
10:40 PM 37.4 °F 28.9 °F 33.8 °F 87% 29.83 in 10.0 mi South 13.8 mph - N/A   Scattered Clouds
10:57 PM 37.0 °F 28.9 °F 34.0 °F 89% 29.84 in 10.0 mi South 12.7 mph - N/A   Scattered Clouds
11:03 PM 35.6 °F 27.1 °F 33.8 °F 93% 29.83 in 10.0 mi South 12.7 mph - N/A   Mostly Cloudy
11:06 PM 35.6 °F 27.1 °F 33.8 °F 93% 29.83 in 10.0 mi South 12.7 mph - N/A   Scattered Clouds
11:24 PM 35.6 °F 26.6 °F 33.8 °F 93% 29.84 in 10.0 mi South 13.8 mph - N/A   Mostly Cloudy
11:57 PM 36.0 °F 30.3 °F 33.1 °F 89% 29.86 in 10.0 mi SSW 6.9 mph - N/A   Overcast